Friday Harbor, WA

1:29 PM PDT on August 29, 2016 (GMT -0700)
Friday Harbor

Weather History for KFHR - August, 2013

Change the Weather History Date:

Friday, August 16, 2013

  Actual Average Record
Temperature  
Mean Temperature 60 °F -  
Max Temperature 75 °F 70 °F 87 °F (2012)
Min Temperature 48 °F 48 °F 44 °F (2011)
Degree Days  
Heating Degree Days 4    
Growing Degree Days 10 (Base 50)    
Moisture  
Dew Point 55 °F    
Average Humidity 91    
Maximum Humidity 100    
Minimum Humidity 57    
Precipitation  
Precipitation 0.00 in - - ()
Sea Level Pressure  
Sea Level Pressure 30.00 in    
Wind  
Wind Speed 1 mph (SSE)    
Max Wind Speed 8 mph    
Max Gust Speed -    
Visibility 5 miles    
Events Fog    
Averages and records for this station are not official NWS values.
T = Trace of Precipitation, MM = Missing Value Source: NWS Daily Summary

Daily Weather History Graph

Daily Weather History Graph

Search for Another Location

Airport or City:

Trip Planner

Search our weather history database for the weather conditions in past years. The results will help you decide how hot, cold, wet, or windy it might be!

Date:

Astronomy

Aug. 16, 2013 Rise Set
Actual Time 6:07 AM PDT 8:24 PM PDT
Civil Twilight 5:33 AM PDT 8:58 PM PDT
Nautical Twilight 4:49 AM PDT 9:41 PM PDT
Astronomical Twilight 4:00 AM PDT 10:29 PM PDT
Moon 4:58 PM PDT (8/16) 1:05 AM PDT (8/16)
Length of Visible Light 15h 25m
Length of Day
14h 16m
Waxing Gibbous, 76% of the Moon is Illuminated
Aug 16
Waxing Gibbous
Aug 20
Full
Aug 28
Last Quarter
Sep 5
New
Sep 12
First Quarter

Hourly Weather History & Observations

Time (PDT) Temp. Dew Point Humidity Pressure Visibility Wind Dir Wind Speed Gust Speed Precip Events Conditions
12:21 AM 51.8 °F 51.8 °F 100% 30.00 in 1.8 mi Calm Calm - N/A   Scattered Clouds
12:25 AM 51.8 °F 51.8 °F 100% 30.00 in 0.8 mi Calm Calm - N/A   Mist
12:51 AM 51.8 °F 50.0 °F 94% 30.00 in 1.5 mi Calm Calm - N/A   Mostly Cloudy
12:53 AM 51.1 °F 50.0 °F 96% 30.00 in 1.8 mi Calm Calm - N/A   Mostly Cloudy
1:09 AM 51.8 °F 51.8 °F 100% 30.00 in 0.5 mi Calm Calm - N/A Fog Fog
1:35 AM 51.8 °F 51.8 °F 100% 30.00 in 2.5 mi Calm Calm - N/A   Mostly Cloudy
1:39 AM 51.8 °F 51.8 °F 100% 30.00 in 4.0 mi Calm Calm - N/A   Scattered Clouds
1:53 AM 52.0 °F 52.0 °F 100% 30.01 in 4.0 mi Calm Calm - N/A   Partly Cloudy
2:53 AM 51.1 °F 50.0 °F 96% 30.00 in 3.0 mi Calm Calm - N/A   Clear
3:07 AM 50.0 °F 50.0 °F 100% 29.99 in 4.0 mi Calm Calm - N/A   Partly Cloudy
3:53 AM 48.9 °F 48.9 °F 100% 30.00 in 3.0 mi Calm Calm - N/A   Clear
3:57 AM 48.2 °F 48.2 °F 100% 29.99 in 1.8 mi Calm Calm - N/A   Clear
4:02 AM 51.8 °F 48.2 °F 88% 30.00 in 0.8 mi Calm Calm - N/A   Mist
4:40 AM 51.8 °F 50.0 °F 94% 29.99 in 2.0 mi Calm Calm - N/A   Mostly Cloudy
4:45 AM 51.8 °F 50.0 °F 94% 29.99 in 4.0 mi Calm Calm - N/A   Scattered Clouds
4:53 AM 50.0 °F 50.0 °F 100% 29.99 in 5.0 mi Calm Calm - N/A   Partly Cloudy
5:41 AM 48.2 °F 48.2 °F 100% 30.00 in 1.8 mi Calm Calm - N/A   Partly Cloudy
5:46 AM 48.2 °F 48.2 °F 100% 30.00 in 0.8 mi Calm Calm - N/A   Mist
5:53 AM 48.9 °F 48.9 °F 100% 30.00 in 0.5 mi Calm Calm - N/A Fog Fog
6:46 AM 50.0 °F 50.0 °F 100% 30.01 in 1.2 mi Calm Calm - N/A   Mostly Cloudy
6:53 AM 51.1 °F 51.1 °F 100% 30.01 in 2.5 mi Calm Calm - N/A   Mostly Cloudy
7:01 AM 51.8 °F 51.8 °F 100% 30.01 in 5.0 mi Calm Calm - N/A   Mostly Cloudy
7:53 AM 57.0 °F 57.0 °F 100% 30.01 in 10.0 mi Calm Calm - N/A   Overcast
8:05 AM 57.2 °F 57.2 °F 100% 30.02 in 10.0 mi Calm Calm - N/A   Overcast
8:25 AM 55.4 °F 55.4 °F 100% 30.02 in 6.0 mi Calm Calm - N/A   Overcast
8:40 AM 55.4 °F 55.4 °F 100% 30.01 in 1.8 mi Calm Calm - N/A   Overcast
8:51 AM 57.2 °F 57.2 °F 100% 30.01 in 0.5 mi Calm Calm - N/A Fog Fog
8:53 AM 57.0 °F 57.0 °F 100% 30.01 in 0.5 mi Calm Calm - N/A Fog Fog
9:44 AM 60.8 °F 60.8 °F 100% 30.02 in 1.2 mi Calm Calm - N/A   Overcast
9:53 AM 61.0 °F 60.1 °F 97% 30.03 in 1.5 mi Calm Calm - N/A   Overcast
10:06 AM 62.6 °F 60.8 °F 94% 30.02 in 3.0 mi East 3.5 mph - N/A   Overcast
10:34 AM 62.6 °F 60.8 °F 94% 30.02 in 9.0 mi Variable 3.5 mph - N/A   Overcast
10:53 AM 66.0 °F 62.1 °F 87% 30.02 in 10.0 mi SSE 3.5 mph - N/A   Overcast
11:53 AM 66.9 °F 62.1 °F 84% 30.03 in 10.0 mi ESE 4.6 mph - N/A   Overcast
12:06 PM 68.0 °F 62.6 °F 83% 30.03 in 10.0 mi SSE 3.5 mph - N/A   Overcast
12:26 PM 69.8 °F 62.6 °F 78% 30.02 in 10.0 mi Variable 3.5 mph - N/A   Overcast
12:53 PM 71.1 °F 62.1 °F 73% 30.02 in 10.0 mi SE 6.9 mph - N/A   Mostly Cloudy
1:53 PM 73.0 °F 62.1 °F 68% 30.01 in 10.0 mi Variable 5.8 mph - N/A   Scattered Clouds
2:53 PM 73.9 °F 59.0 °F 59% 30.00 in 10.0 mi SE 3.5 mph - N/A   Mostly Cloudy
3:53 PM 73.0 °F 61.0 °F 66% 30.00 in 10.0 mi ESE 4.6 mph - N/A   Clear
4:53 PM 73.9 °F 57.9 °F 57% 29.99 in 10.0 mi SSW 3.5 mph - N/A   Clear
5:53 PM 71.1 °F 57.9 °F 63% 29.98 in 10.0 mi SW 8.1 mph - N/A   Clear
6:53 PM 68.0 °F 57.0 °F 68% 29.98 in 10.0 mi Calm Calm - N/A   Partly Cloudy
7:53 PM 63.0 °F 55.9 °F 78% 29.98 in 10.0 mi Calm Calm - N/A   Scattered Clouds
8:53 PM 61.0 °F 55.0 °F 81% 29.99 in 10.0 mi Calm Calm - N/A   Scattered Clouds
9:53 PM 57.0 °F 53.1 °F 87% 30.00 in 10.0 mi Calm Calm - N/A   Overcast
10:53 PM 57.0 °F 53.1 °F 87% 30.01 in 10.0 mi Calm Calm - 0.00 in   Overcast
11:53 PM 55.9 °F 53.1 °F 90% 30.00 in 10.0 mi Calm Calm - 0.00 in   Overcast